User: anonymous   Login
Location: Zapote
(9.9191°N, 84.0597°W)
Time: 13:56:23
(UTC-06:00)
Language:

Courier 1B Rocket - Orbit

View from above orbital plane
View from above orbital plane
View from above satellite
View from above satellite

Ground track
Ground track

The orbit data is extracted from the following two-line orbital elements,

1 00059U 60013B   21062.45045121  .00000093  00000-0  53822-5 0  9994
2 00059  28.2506 327.7936 0189179 299.9703  58.2187 13.52982336981540
Epoch (UTC): 03 March 2021 10:48:38
Eccentricity: 0.0189179
inclination: 28.2506°
perigee height: 920 km
apogee height: 1202 km
right ascension of ascending node: 327.7936°
argument of perigee: 299.9703°
revolutions per day: 13.52982336
mean anomaly at epoch: 58.2187°
orbit number at epoch: 98154

The dashed part of the orbit path shows where the satellite is in the earth's shadow,  

DLR